Location: Allen Generating Plant
(35.0740°N, 90.1490°W)
Time: 09:13:54
(UTC+00:00)

Explorer 11/Cluster Stage 4 - Pass Details

Date: 14 November 2024
Orbit: 464 x 1202 km, 28.8° (Epoch: 06 December)

Event Time Altitude Azimuth Distance (km) Brightness Sun altitude
Exits shadow 09:28:57 11° 113° (ESE) 1,890 9.1 -38.0°
Drops below altitude 10° 09:29:07 10° 112° (ESE) 1,943 9.2 -38.0°
Sets 09:31:32 0° 98° (E) 2,742 10.3 -37.5°
